Location: Saluda
(35.2377°N, 82.3468°W)
Time: 16:00:27
(UTC+00:00)

S-56A Canister/Altair - All Passes

Search period start: 26 September 2022 00:00
Search period end: 06 October 2022 00:00
Orbit: 637 x 2496 km, 38.9° (Epoch: 25 September)

Date Brightness Start Highest point End Pass type
(mag) Time Alt. Az. Time Alt. Az. Time Alt. Az.
26 Sep - 04:58:05 10° SSE 05:01:05 11° SE 05:03:52 10° SE night (unlit)
26 Sep - 06:56:06 10° SSW 07:06:05 38° SSE 07:13:02 10° E visible
26 Sep - 09:01:27 10° WSW 09:10:44 87° SSE 09:16:47 10° ENE visible
26 Sep - 11:08:21 10° W 11:15:10 60° N 11:20:04 10° E daylight
26 Sep - 13:13:56 10° WNW 13:19:14 84° SSW 13:23:40 10° ESE daylight
26 Sep - 15:19:18 10° W 15:22:20 18° SW 15:25:24 10° S daylight
27 Sep - 06:22:50 10° SSW 06:33:08 35° SSE 06:40:26 10° E visible
27 Sep - 08:27:55 10° WSW 08:37:56 81° SSE 08:44:24 10° ENE visible
27 Sep - 10:35:01 10° W 10:42:30 63° N 10:47:41 10° ENE visible
27 Sep - 12:41:01 10° WNW 12:46:43 87° NNE 12:51:14 10° ESE daylight
27 Sep - 14:46:20 10° W 14:49:53 22° SW 14:53:20 10° SSE daylight
28 Sep - 05:49:37 10° SSW 06:00:05 33° SE 06:07:44 10° E visible
28 Sep - 07:54:20 10° WSW 08:05:05 75° SSE 08:12:00 10° ENE visible
28 Sep - 10:01:33 10° W 10:09:47 66° N 10:15:19 10° ENE visible
28 Sep - 12:07:59 10° WNW 12:14:10 80° NNE 12:18:50 10° ESE daylight
28 Sep - 14:13:23 10° W 14:17:27 27° SW 14:21:12 10° SSE daylight
29 Sep - 05:16:28 10° SSW 05:27:01 30° SE 05:34:57 10° E night (unlit)
29 Sep - 07:20:44 10° SW 07:32:09 70° SSE 07:39:34 10° ENE visible
29 Sep - 09:27:59 10° W 09:37:00 69° N 09:42:56 10° ENE visible
29 Sep - 11:34:50 10° WNW 11:41:35 75° NNE 11:46:25 10° E daylight
29 Sep - 13:40:24 10° W 13:45:01 33° SW 13:49:03 10° SSE daylight
30 Sep - 04:43:25 10° SSW 04:53:54 28° SE 05:02:02 10° E night (unlit)
30 Sep - 06:47:08 10° SW 06:59:09 65° SSE 07:07:04 10° ENE visible
30 Sep - 08:54:20 10° W 09:04:11 73° N 09:10:33 10° ENE visible
30 Sep - 11:01:34 10° WNW 11:08:56 71° N 11:14:03 10° E visible
30 Sep - 13:07:23 10° WNW 13:12:36 41° SSW 13:16:51 10° SE daylight
01 Oct - 04:10:28 10° S 04:20:44 25° SE 04:28:59 10° E night (unlit)
01 Oct - 06:13:32 10° SW 06:26:05 61° SSE 06:34:33 10° ENE visible
01 Oct - 08:20:37 10° W 08:31:17 77° NNW 08:38:09 10° ENE visible
01 Oct - 10:28:11 10° WNW 10:36:14 69° N 10:41:39 10° E visible
01 Oct - 12:34:19 10° WNW 12:40:08 50° SSW 12:44:38 10° SE daylight
02 Oct - 03:37:40 10° S 03:47:32 23° SE 03:55:46 10° E night (unlit)
02 Oct - 05:39:58 10° SW 05:52:57 57° SSE 06:01:56 10° ENE visible
02 Oct - 07:46:51 10° WSW 07:58:20 81° NNW 08:05:43 10° ENE visible
02 Oct - 09:54:41 10° WNW 10:03:28 68° N 10:09:16 10° E visible
02 Oct - 12:01:09 10° WNW 12:07:39 60° SSW 12:12:23 10° SE daylight
03 Oct - 03:05:04 10° S 03:14:20 20° SE 03:22:20 10° E night (unlit)
03 Oct - 05:06:29 10° SW 05:19:45 53° SSE 05:29:15 10° ENE night (unlit)
03 Oct - 07:13:02 10° WSW 07:25:18 85° NNW 07:33:15 10° ENE visible
03 Oct - 09:21:05 10° W 09:30:39 68° N 09:36:51 10° E visible
03 Oct - 11:27:54 10° WNW 11:35:06 70° SSW 11:40:08 10° ESE daylight
03 Oct - 13:35:14 10° WSW 13:37:51 14° SW 13:40:15 10° SSW daylight
04 Oct - 02:32:42 10° S 02:41:06 18° SE 02:48:38 10° E visible
04 Oct - 04:33:04 10° SW 04:46:30 49° SSE 04:56:30 10° ENE night (unlit)
04 Oct - 06:39:13 10° WSW 06:52:12 90° NNW 07:00:45 10° ENE visible
04 Oct - 08:47:23 10° W 08:57:45 69° N 09:04:26 10° E visible
04 Oct - 10:54:35 10° WNW 11:02:29 79° SSW 11:07:50 10° ESE visible
04 Oct - 13:01:32 10° W 13:05:26 18° SW 13:08:46 10° S daylight
05 Oct - 02:00:42 10° SSE 02:07:53 15° SE 02:14:33 10° ESE visible
05 Oct - 03:59:44 10° SSW 04:13:13 45° SE 04:23:38 10° ENE night (unlit)
05 Oct - 06:05:25 10° WSW 06:19:01 86° SSE 06:28:10 10° ENE visible
05 Oct - 08:13:35 10° W 08:24:47 70° N 08:31:59 10° E visible
05 Oct - 10:21:08 10° WNW 10:29:49 87° SSW 10:35:30 10° ESE visible
05 Oct - 12:28:02 10° W 12:33:02 24° SW 12:37:01 10° S daylight
